SCP
0 0 0 0 0 0 0 0 0 0 0 0 0 0 0 0 0 0 0 0 0 0 0 0 0 0 0 0 0 0 0 0 0 0 0 0 0 0 0 0 0 0 0 0
0 0 0 0 0 0 0 0 0 0 0 0 0 0 0 0 0 0 0 0 0 0 0 0 0 0 0 0 0 0 0 0 0 0 0 0 0 0 0 0 0 0 0 0
0 0 0 0 0 0 0 0 0 0 0 0 0 0 0 0 0 0 0 0 0 0 0 0 0 0 0 0 0 0 0 0 0 0 0 0 0 0 0 0 0 0 0 0
0 0 0 0 0 0 0 0 0 0 0 0 0 0 0 0 0 0 0 0 0 0 0 0 0 0 0 0 0 0 0 0 0 0 0 0 0 0 0 0 0 0 0 0
0 0 0 0 0 0 0 0 0 0 0 0 0 0 0 0 0 0 0 0 0 0 0 0 0 0 0 0 0 0 0 0 0 0 0 0 0 0 0 0 0 0 0 0
0 0 0 0 0 0 0 0 0 0 0 0 0 0 0 0 0 0 0 0 0 0 0 0 0 0 0 0 0 0 0 0 0 0 0 0 0 0 0 0 0 0 0 0
0 0 0 0 0 0 0 0 0 0 0 0 0 0 0 0 0 0 0 0 0 0 0 0 0 0 0 0 0 0 0 0 0 0 0 0 0 0 0 0 0 0 0 0
0 0 0 0 0 0 0 0 0 0 0 0 0 0 0 0 0 0 0 0 0 0 0 0 0 0 0 0 0 0 0 0 0 0 0 0 0 0 0 0 0 0 0 0
0 0 0 0 0 0 0 0 0 0 0 0 0 0 0 0 0 0 0 0 0 0 0 0 0 0 0 0 0 0 0 0 0 0 0 0 0 0 0 0 0 0 0 0
0 0 0 0 0 0 0 0 0 0 0 0 0 0 0 0 0 0 0 0 0 0 0 0 0 0 0 0 0 0 0 0 0 0 0 0 0 0 0 0 0 0 0 0
0 0 0 0 0 0 0 0 0 0 0 0 0 0 0 0 0 0 0 0 0 0 0 0 0 0 0 0 0 0 0 0 0 0 0 0 0 0 0 0 0 0 0 0
0 0 0 0 0 0 0 0 0 0 0 0 0 0 0 -0 -0 -0 0 0 0 0 0 0 0 0 0 0 0 0 0 0 0 0 0 0 0 0 0 0 0 0 0 0
0 0 0 0 0 0 0 0 0 0 0 0 0 0 0 0 0 0 0 0 0 0 0 0 0 0 0 0 0 0 0 0 0 0 0 0 0 0 0 0 0 0 0 0
0 0 0 0 0 0 0 0 0 0 0 0 0 0 0 0 0 0 0 0 0 0 0 0 0 0 0 0 0 0 0 0 0 0 0 0 0 0 0 0 0 0 0 0
0 0 0 0 0 0 0 0 0 0 0 0 0 0 0 0 0 0 0 0 0 0 0 0 0 0 0 0 0 0 0 0 0 0 0 0 0 0 0 0 0 0 0 0
0 0 0 0 0 0 0 0 0 0 0 0 0 0 0 0 0 0 0 0 0 0 0 0 0 0 0 0 0 0 0 0 0 0 0 0 0 0 0 0 0 0 0 0
0 0 0 0 0 0 0 0 0 0 0 0 0 0 0 0 0 0 0 0 0 0 0 0 0 0 0 0 0 0 0 0 0 0 0 0 0 0 0 0 0 0 0 0
0 0 0 0 0 0 0 0 0 0 0 0 0 0 0 0 0 0 0 0 0 0 0 0 0 0 0 0 0 0 0 0 0 0 0 0 0 0 0 0 0 0 0 0
0 0 0 0 0 0 0 0 0 0 0 0 0 0 0 0 0 0 0 0 0 0 0 0 0 0 0 0 0 0 0 0 0 0 0 0 0 0 0 0 0 0 0 0
0 0 0 0 0 0 0 0 0 0 0 0 0 0 0 0 0 0 0 0 0 0 0 0 0 0 0 0 0 0 0 0 0 0 0 0 0 0 0 0 0 0 0 0
0 0 0 0 0 0 0 0 0 0 0 0 0 0 0 0 0 0 0 0 0 0 0 0 0 0 0 0 0 0 0 0 0 0 0 0 0 0 0 0 0 0 0 0
0 0 0 0 0 0 0 0 0 0 0 0 0 0 0 0 0 0 0 0 0 0 0 0 0 0 0 0 0 0 0 0 0 0 0 0 0 0 0 0 0 0 0 0
0 0 0 0 0 0 0 0 0 0 0 0 0 0 0 0 0 0 0 0 0 0 0 0 0 0 0 0 0 0 0 0 0 0 0 0 0 0 0 0 0 0 0 0
0 0 0 0 0 0 0 0 0 0 0 0 0 0 0 0 0 0 0 0 0 0 0 0 0 0 0 0 0 0 0 0 0 0 0 0 0 0 0 0 0 0 0 0
0 0 0 0 0 0 0 0 0 0 0 0 0 0 0 0 0 0 0 0 0 0 0 0 0 0 0 0 0 0 0 0 0 0 0 0 0 0 0 0 0 0 0 0
0 0 0 0 0 0 0 0 0 0 0 0 0 0 0 0 0 0 0 0 0 0 0 0 0 0 0 0 0 0 0 0 0 0 0 0 0 0 0 0 0 0 0 0
Wind_Speed_500mb
25 15 33 35 27 4 27 11 11 7 6 10 15 15 14 26 34 42 53 58 59 60 54 57 57 57 58 62 59 58 53 45 44 43 48 52 45 40 40 36 30 27 24 22
15 35 25 15 14 15 14 17 13 4 3 8 8 21 6 22 28 56 60 62 65 60 60 60 61 63 65 66 65 65 60 53 49 48 43 43 41 37 39 34 32 28 27 28
26 3 21 19 18 26 10 32 11 11 7 5 9 14 8 11 29 32 50 56 58 66 63 64 61 65 65 68 63 62 62 57 52 47 45 47 40 32 36 36 32 31 33 33
7 6 31 18 31 24 25 8 8 15 12 10 8 10 12 14 18 17 46 49 61 66 63 63 61 64 66 67 64 64 66 62 55 47 50 51 44 37 35 35 39 35 33 33
15 4 14 24 16 15 10 10 12 7 5 6 4 3 12 4 18 15 41 57 63 64 70 68 66 66 65 66 65 66 68 68 63 55 56 51 43 38 39 42 41 39 35 31
6 14 8 12 5 15 15 11 11 8 5 7 18 15 11 14 17 22 30 68 66 66 68 67 64 65 66 66 67 67 68 70 67 64 59 56 47 46 40 41 40 38 33 28
8 12 13 6 9 5 14 16 5 3 3 23 6 8 22 10 16 15 42 76 74 67 72 73 69 65 62 63 66 69 74 73 69 68 65 60 53 46 40 39 36 34 31 28
18 11 19 13 18 9 10 18 9 14 14 6 7 14 14 12 12 26 33 58 73 70 70 70 67 62 57 55 55 59 63 67 70 69 68 64 53 45 40 40 38 35 30 24
12 7 13 13 15 21 13 17 3 10 4 6 9 12 21 8 11 18 30 36 69 85 79 71 62 57 54 51 49 48 51 56 61 69 69 64 55 49 41 38 37 34 31 27
14 9 4 2 11 6 7 13 11 2 10 9 8 8 9 9 20 17 20 50 63 81 75 67 59 54 50 44 42 43 45 46 54 65 65 62 54 47 42 41 42 37 34 28
10 8 4 11 17 32 11 10 7 4 9 13 3 13 17 23 33 30 46 60 67 79 74 62 54 49 45 44 44 45 46 49 55 63 63 63 55 49 48 48 43 37 31 25
9 10 9 20 2 6 29 13 14 13 13 1 5 13 5 15 18 19 26 37 50 64 62 57 52 50 49 49 49 49 50 53 57 62 65 64 59 58 54 48 42 35 28 22
14 6 8 6 2 5 13 21 11 8 7 18 10 18 3 10 13 21 37 47 52 61 59 54 53 55 56 57 55 53 54 58 62 64 63 65 66 61 53 46 39 32 26 20
25 7 14 24 25 15 8 10 10 20 6 10 18 11 11 14 16 15 31 47 59 64 63 62 63 64 62 58 55 58 62 62 65 66 65 64 61 55 49 42 36 30 24 18
10 13 8 5 2 18 21 32 25 20 31 20 38 21 26 21 17 22 35 43 56 65 70 72 73 70 66 65 66 66 66 69 69 68 66 63 58 53 46 40 34 27 22 16
2 4 7 4 6 6 8 20 23 37 50 41 11 14 17 16 21 24 44 52 63 74 77 78 77 75 77 77 78 77 76 75 73 71 69 63 57 51 45 38 32 26 21 15
16 10 7 8 5 8 8 32 28 30 34 45 31 31 10 11 20 41 48 57 66 75 80 85 87 85 85 87 85 86 83 79 78 74 68 63 57 51 44 38 31 25 20 18
17 12 6 4 6 12 10 8 26 37 32 39 35 11 19 33 49 44 46 55 62 67 74 81 85 86 92 93 91 87 87 86 83 78 72 66 59 52 46 39 32 27 23 22
6 16 6 5 6 15 20 11 10 14 20 21 26 34 20 22 12 29 46 54 57 58 67 75 82 90 94 97 95 96 94 91 88 84 78 69 61 55 47 39 34 30 27 25
6 12 23 6 9 22 3 21 27 14 32 21 24 23 19 24 8 26 58 60 65 66 66 74 80 83 92 98 102 102 100 99 96 88 80 70 63 54 47 41 35 32 29 26
7 6 24 19 10 16 16 4 37 16 24 2 34 45 45 16 41 49 29 39 49 65 75 76 77 82 86 95 103 107 105 107 97 89 80 72 64 56 49 44 38 34 30 26
14 13 9 5 15 31 16 11 30 8 12 6 6 3 20 48 50 52 50 31 31 44 53 65 73 78 83 89 94 106 111 105 99 91 83 75 66 59 53 46 40 35 31 30
5 12 13 23 16 1 29 5 12 3 7 2 3 2 3 11 19 30 41 40 38 36 44 54 64 73 80 83 86 99 109 108 100 93 86 77 69 61 53 45 39 32 38 38
6 4 6 7 4 6 30 12 13 2 8 7 5 6 6 3 9 11 16 18 19 26 35 47 59 68 75 76 78 88 103 106 101 97 89 79 69 61 53 43 35 47 45 41
3 10 9 5 5 12 4 16 6 9 5 5 8 7 10 11 9 12 13 17 17 19 26 36 50 61 65 68 75 84 94 100 99 94 87 78 66 57 46 37 50 48 44 40
9 6 6 4 7 10 10 15 10 4 3 8 9 12 17 19 17 15 15 16 22 21 23 30 39 48 54 57 66 77 86 95 96 92 84 71 60 46 37 51 58 49 44 41
Wind_Direction_500mb
172 174 200 193 199 298 199 209 139 247 195 139 212 237 237 210 207 208 210 211 213 214 212 214 214 216 221 227 228 227 223 219 218 217 220 225 229 230 229 234 239 249 249 256
160 216 192 213 190 192 230 191 202 76 155 149 192 242 239 192 219 216 214 216 216 217 216 217 218 218 222 228 230 229 226 223 223 225 229 234 244 236 235 242 242 245 252 260
177 280 177 184 193 208 221 208 186 159 145 77 130 292 201 230 230 229 230 229 223 217 213 213 217 220 221 224 223 225 225 225 226 230 227 227 232 232 229 231 235 239 244 250
296 201 178 182 208 193 225 195 139 132 134 198 162 259 240 212 229 220 227 229 225 215 210 212 214 216 216 219 222 222 223 225 226 227 226 229 235 241 232 234 237 239 241 246
188 206 179 196 190 174 213 140 158 156 140 132 213 151 262 102 236 237 229 224 223 218 212 212 216 217 214 216 220 222 224 225 225 224 225 230 234 238 231 230 232 238 241 244
259 312 230 186 128 180 136 88 56 53 88 258 211 180 246 190 202 223 225 223 220 213 209 211 214 217 217 219 223 225 227 227 224 221 220 226 228 236 235 231 232 231 232 234
144 271 301 215 126 67 165 142 153 197 210 235 350 186 232 226 226 217 212 220 214 210 209 208 211 218 223 225 228 231 230 228 224 219 213 220 226 230 227 228 224 223 214 219
163 207 185 179 211 173 199 189 166 183 207 211 61 233 245 225 241 241 243 233 215 208 210 212 214 221 228 233 234 231 230 227 223 215 212 216 217 218 232 213 208 225 217 218
144 258 126 182 154 179 183 215 217 102 15 85 208 278 301 234 258 243 236 215 218 210 210 212 215 223 230 232 230 227 222 219 218 212 208 213 210 211 224 209 213 209 193 190
186 124 153 128 90 0 167 157 216 207 156 222 258 273 233 250 241 219 217 217 216 212 209 211 213 219 222 221 219 215 213 215 209 204 202 204 205 209 213 211 195 185 186 189
162 107 103 132 194 184 202 200 211 213 160 206 227 257 212 210 219 212 215 212 210 206 203 205 209 213 214 213 210 206 203 204 201 194 196 199 203 203 193 187 184 184 190 196
210 105 129 202 161 133 203 214 185 203 220 191 160 258 214 252 279 250 222 213 208 204 199 202 207 208 208 208 205 201 196 198 200 199 200 197 198 188 184 182 186 189 196 204
180 159 100 85 117 208 199 198 197 108 64 212 192 242 314 282 289 253 218 206 205 200 201 200 203 207 207 205 201 196 194 194 196 196 194 187 183 182 183 186 190 195 202 211
143 152 168 199 211 128 190 191 201 217 193 213 240 252 276 261 257 235 213 211 202 202 202 203 205 206 205 201 195 192 190 189 186 184 182 184 183 182 185 189 196 201 206 215
149 183 179 46 82 182 200 206 187 194 223 212 250 222 237 239 233 224 217 206 202 204 204 207 208 206 203 198 195 193 191 187 187 186 186 188 186 187 190 196 201 206 212 222
171 191 124 25 32 117 224 214 216 215 225 232 222 274 233 244 234 203 211 206 208 212 211 212 213 210 207 203 199 197 196 193 191 192 192 192 192 193 195 200 204 211 219 235
163 120 82 255 5 76 307 216 200 215 214 226 234 235 179 213 222 219 211 214 218 221 219 218 218 215 214 209 205 202 199 197 197 197 196 197 198 198 199 204 210 217 229 246
150 108 89 170 46 207 268 231 201 208 221 223 238 233 197 220 235 244 239 233 234 232 229 227 226 223 220 214 210 207 205 203 201 199 200 201 201 202 204 207 212 221 234 246
4 155 116 170 206 293 287 206 148 172 257 213 219 238 223 224 239 249 238 244 250 254 249 245 239 228 222 219 215 211 208 206 205 204 203 203 204 207 208 210 216 224 236 242
37 171 179 158 194 222 302 177 162 120 269 212 205 214 194 156 188 246 244 243 248 246 247 245 240 231 227 223 219 215 211 209 208 208 207 206 208 209 212 214 219 228 234 240
91 90 192 197 233 278 242 194 148 165 258 32 217 209 192 186 227 257 268 252 258 256 250 245 240 237 233 225 220 216 214 214 213 210 207 207 209 211 213 216 220 227 233 239
150 145 183 115 213 257 160 132 176 247 44 63 74 203 236 243 252 259 267 272 263 258 257 250 243 238 234 231 224 219 218 216 212 208 208 208 211 214 215 217 222 228 234 243
196 186 174 186 209 154 181 174 197 55 84 112 127 131 278 283 287 279 273 274 276 266 255 250 245 240 236 233 227 222 219 216 211 208 209 209 212 213 215 219 225 237 247 243
253 168 174 95 208 161 195 214 208 167 115 98 57 12 353 310 299 291 288 286 275 269 258 246 240 237 236 232 226 224 222 214 210 209 208 209 212 214 216 219 245 247 241 244
207 132 167 268 113 107 108 218 185 192 124 68 31 8 357 343 328 319 316 317 300 283 271 253 242 240 238 231 224 224 221 214 210 209 210 211 212 215 218 241 242 242 242 247
180 187 182 210 150 112 123 90 115 170 68 66 60 35 13 353 341 333 327 318 309 304 287 265 250 244 241 235 229 225 219 212 211 209 210 211 214 215 239 240 241 240 243 250
Wind_Speed_850mb
25 15 33 35 27 4 27 11 11 7 6 10 15 15 14 26 34 42 53 58 59 60 54 57 57 57 58 62 59 58 53 45 44 43 48 52 45 40 40 36 30 27 24 22
15 35 25 15 14 15 14 17 13 4 3 8 8 21 6 22 28 56 60 62 65 60 60 60 61 63 65 66 65 65 60 53 49 48 43 43 41 37 39 34 32 28 27 28
26 3 21 19 18 26 10 32 11 11 7 5 9 14 8 11 29 32 50 56 58 66 63 64 61 65 65 68 63 62 62 57 52 47 45 47 40 32 36 36 32 31 33 33
7 6 31 18 31 24 25 8 8 15 12 10 8 10 12 14 18 17 46 49 61 66 63 63 61 64 66 67 64 64 66 62 55 47 50 51 44 37 35 35 39 35 33 33
15 4 14 24 16 15 10 10 12 7 5 6 4 3 12 4 18 15 41 57 63 64 70 68 66 66 65 66 65 66 68 68 63 55 56 51 43 38 39 42 41 39 35 31
6 14 8 12 5 15 15 11 11 8 5 7 18 15 11 14 17 22 30 68 66 66 68 67 64 65 66 66 67 67 68 70 67 64 59 56 47 46 40 41 40 38 33 28
8 12 13 6 9 5 14 16 5 3 3 23 6 8 22 10 16 15 42 76 74 67 72 73 69 65 62 63 66 69 74 73 69 68 65 60 53 46 40 39 36 34 31 28
18 11 19 13 18 9 10 18 9 14 14 6 7 14 14 12 12 26 33 58 73 70 70 70 67 62 57 55 55 59 63 67 70 69 68 64 53 45 40 40 38 35 30 24
12 7 13 13 15 21 13 17 3 10 4 6 9 12 21 8 11 18 30 36 69 85 79 71 62 57 54 51 49 48 51 56 61 69 69 64 55 49 41 38 37 34 31 27
14 9 4 2 11 6 7 13 11 2 10 9 8 8 9 9 20 17 20 50 63 81 75 67 59 54 50 44 42 43 45 46 54 65 65 62 54 47 42 41 42 37 34 28
10 8 4 11 17 32 11 10 7 4 9 13 3 13 17 23 33 30 46 60 67 79 74 62 54 49 45 44 44 45 46 49 55 63 63 63 55 49 48 48 43 37 31 25
9 10 9 20 2 6 29 13 14 13 13 1 5 13 5 15 18 19 26 37 50 64 62 57 52 50 49 49 49 49 50 53 57 62 65 64 59 58 54 48 42 35 28 22
14 6 8 6 2 5 13 21 11 8 7 18 10 18 3 10 13 21 37 47 52 61 59 54 53 55 56 57 55 53 54 58 62 64 63 65 66 61 53 46 39 32 26 20
25 7 14 24 25 15 8 10 10 20 6 10 18 11 11 14 16 15 31 47 59 64 63 62 63 64 62 58 55 58 62 62 65 66 65 64 61 55 49 42 36 30 24 18
10 13 8 5 2 18 21 32 25 20 31 20 38 21 26 21 17 22 35 43 56 65 70 72 73 70 66 65 66 66 66 69 69 68 66 63 58 53 46 40 34 27 22 16
2 4 7 4 6 6 8 20 23 37 50 41 11 14 17 16 21 24 44 52 63 74 77 78 77 75 77 77 78 77 76 75 73 71 69 63 57 51 45 38 32 26 21 15
16 10 7 8 5 8 8 32 28 30 34 45 31 31 10 11 20 41 48 57 66 75 80 85 87 85 85 87 85 86 83 79 78 74 68 63 57 51 44 38 31 25 20 18
17 12 6 4 6 12 10 8 26 37 32 39 35 11 19 33 49 44 46 55 62 67 74 81 85 86 92 93 91 87 87 86 83 78 72 66 59 52 46 39 32 27 23 22
6 16 6 5 6 15 20 11 10 14 20 21 26 34 20 22 12 29 46 54 57 58 67 75 82 90 94 97 95 96 94 91 88 84 78 69 61 55 47 39 34 30 27 25
6 12 23 6 9 22 3 21 27 14 32 21 24 23 19 24 8 26 58 60 65 66 66 74 80 83 92 98 102 102 100 99 96 88 80 70 63 54 47 41 35 32 29 26
7 6 24 19 10 16 16 4 37 16 24 2 34 45 45 16 41 49 29 39 49 65 75 76 77 82 86 95 103 107 105 107 97 89 80 72 64 56 49 44 38 34 30 26
14 13 9 5 15 31 16 11 30 8 12 6 6 3 20 48 50 52 50 31 31 44 53 65 73 78 83 89 94 106 111 105 99 91 83 75 66 59 53 46 40 35 31 30
5 12 13 23 16 1 29 5 12 3 7 2 3 2 3 11 19 30 41 40 38 36 44 54 64 73 80 83 86 99 109 108 100 93 86 77 69 61 53 45 39 32 38 38
6 4 6 7 4 6 30 12 13 2 8 7 5 6 6 3 9 11 16 18 19 26 35 47 59 68 75 76 78 88 103 106 101 97 89 79 69 61 53 43 35 47 45 41
3 10 9 5 5 12 4 16 6 9 5 5 8 7 10 11 9 12 13 17 17 19 26 36 50 61 65 68 75 84 94 100 99 94 87 78 66 57 46 37 50 48 44 40
9 6 6 4 7 10 10 15 10 4 3 8 9 12 17 19 17 15 15 16 22 21 23 30 39 48 54 57 66 77 86 95 96 92 84 71 60 46 37 51 58 49 44 41
Wind_Direction_850mb
172 174 200 193 199 298 199 209 139 247 195 139 212 237 237 210 207 208 210 211 213 214 212 214 214 216 221 227 228 227 223 219 218 217 220 225 229 230 229 234 239 249 249 256
160 216 192 213 190 192 230 191 202 76 155 149 192 242 239 192 219 216 214 216 216 217 216 217 218 218 222 228 230 229 226 223 223 225 229 234 244 236 235 242 242 245 252 260
177 280 177 184 193 208 221 208 186 159 145 77 130 292 201 230 230 229 230 229 223 217 213 213 217 220 221 224 223 225 225 225 226 230 227 227 232 232 229 231 235 239 244 250
296 201 178 182 208 193 225 195 139 132 134 198 162 259 240 212 229 220 227 229 225 215 210 212 214 216 216 219 222 222 223 225 226 227 226 229 235 241 232 234 237 239 241 246
188 206 179 196 190 174 213 140 158 156 140 132 213 151 262 102 236 237 229 224 223 218 212 212 216 217 214 216 220 222 224 225 225 224 225 230 234 238 231 230 232 238 241 244
259 312 230 186 128 180 136 88 56 53 88 258 211 180 246 190 202 223 225 223 220 213 209 211 214 217 217 219 223 225 227 227 224 221 220 226 228 236 235 231 232 231 232 234
144 271 301 215 126 67 165 142 153 197 210 235 350 186 232 226 226 217 212 220 214 210 209 208 211 218 223 225 228 231 230 228 224 219 213 220 226 230 227 228 224 223 214 219
163 207 185 179 211 173 199 189 166 183 207 211 61 233 245 225 241 241 243 233 215 208 210 212 214 221 228 233 234 231 230 227 223 215 212 216 217 218 232 213 208 225 217 218
144 258 126 182 154 179 183 215 217 102 15 85 208 278 301 234 258 243 236 215 218 210 210 212 215 223 230 232 230 227 222 219 218 212 208 213 210 211 224 209 213 209 193 190
186 124 153 128 90 0 167 157 216 207 156 222 258 273 233 250 241 219 217 217 216 212 209 211 213 219 222 221 219 215 213 215 209 204 202 204 205 209 213 211 195 185 186 189
162 107 103 132 194 184 202 200 211 213 160 206 227 257 212 210 219 212 215 212 210 206 203 205 209 213 214 213 210 206 203 204 201 194 196 199 203 203 193 187 184 184 190 196
210 105 129 202 161 133 203 214 185 203 220 191 160 258 214 252 279 250 222 213 208 204 199 202 207 208 208 208 205 201 196 198 200 199 200 197 198 188 184 182 186 189 196 204
180 159 100 85 117 208 199 198 197 108 64 212 192 242 314 282 289 253 218 206 205 200 201 200 203 207 207 205 201 196 194 194 196 196 194 187 183 182 183 186 190 195 202 211
143 152 168 199 211 128 190 191 201 217 193 213 240 252 276 261 257 235 213 211 202 202 202 203 205 206 205 201 195 192 190 189 186 184 182 184 183 182 185 189 196 201 206 215
149 183 179 46 82 182 200 206 187 194 223 212 250 222 237 239 233 224 217 206 202 204 204 207 208 206 203 198 195 193 191 187 187 186 186 188 186 187 190 196 201 206 212 222
171 191 124 25 32 117 224 214 216 215 225 232 222 274 233 244 234 203 211 206 208 212 211 212 213 210 207 203 199 197 196 193 191 192 192 192 192 193 195 200 204 211 219 235
163 120 82 255 5 76 307 216 200 215 214 226 234 235 179 213 222 219 211 214 218 221 219 218 218 215 214 209 205 202 199 197 197 197 196 197 198 198 199 204 210 217 229 246
150 108 89 170 46 207 268 231 201 208 221 223 238 233 197 220 235 244 239 233 234 232 229 227 226 223 220 214 210 207 205 203 201 199 200 201 201 202 204 207 212 221 234 246
4 155 116 170 206 293 287 206 148 172 257 213 219 238 223 224 239 249 238 244 250 254 249 245 239 228 222 219 215 211 208 206 205 204 203 203 204 207 208 210 216 224 236 242
37 171 179 158 194 222 302 177 162 120 269 212 205 214 194 156 188 246 244 243 248 246 247 245 240 231 227 223 219 215 211 209 208 208 207 206 208 209 212 214 219 228 234 240
91 90 192 197 233 278 242 194 148 165 258 32 217 209 192 186 227 257 268 252 258 256 250 245 240 237 233 225 220 216 214 214 213 210 207 207 209 211 213 216 220 227 233 239
150 145 183 115 213 257 160 132 176 247 44 63 74 203 236 243 252 259 267 272 263 258 257 250 243 238 234 231 224 219 218 216 212 208 208 208 211 214 215 217 222 228 234 243
196 186 174 186 209 154 181 174 197 55 84 112 127 131 278 283 287 279 273 274 276 266 255 250 245 240 236 233 227 222 219 216 211 208 209 209 212 213 215 219 225 237 247 243
253 168 174 95 208 161 195 214 208 167 115 98 57 12 353 310 299 291 288 286 275 269 258 246 240 237 236 232 226 224 222 214 210 209 208 209 212 214 216 219 245 247 241 244
207 132 167 268 113 107 108 218 185 192 124 68 31 8 357 343 328 319 316 317 300 283 271 253 242 240 238 231 224 224 221 214 210 209 210 211 212 215 218 241 242 242 242 247
180 187 182 210 150 112 123 90 115 170 68 66 60 35 13 353 341 333 327 318 309 304 287 265 250 244 241 235 229 225 219 212 211 209 210 211 214 215 239 240 241 240 243 250